Location: ???????
(55.3754°N, 39.3545°E)
Time: 10:15:52
(UTC+00:00)

Cosmos 2237 Rocket - Pass Details

Date: 14 April 2026
Orbit: 833 x 850 km, 71.0° (Epoch: 19 May)

Event Time Altitude Azimuth Distance (km) Brightness Sun altitude
Rises 18:14:50 0° 192° (SSW) 3,393 5.0 -14.2°
Reaches altitude 10° 18:17:19 10° 187° (S) 2,464 4.3 -14.4°
Maximum altitude 18:22:46 50° 114° (ESE) 1,073 2.4 -15.0°
Drops below altitude 10° 18:28:15 10° 40° (NE) 2,487 4.7 -15.5°
Sets 18:30:46 0° 36° (NE) 3,428 5.5 -15.8°
